Вернуться в каталог

STARLINK-6178

АктивенСвязьVLEO
NORAD 56387·PAYLOAD·🇺🇸 United States

Запущен May 4, 2023 с Cape Canaveral Space Force Station

Loading…

Ближайшие Пролёты (ближайшие 24 часа)

TLE

СвежийSource: CelesTrak SupGP

Эпоха: Sep 15, 2026, 02:07 UTC

1 56387C 23061P   26258.08868056 -.00017300  00000+0 -62678-3 0  2587
2 56387  43.0018 208.0591 0001892 279.8533 248.5206 15.27577123    17

Отслеживайте STARLINK-6178 в реальном времени с AllMySat

Download on the App Store